TimeCDT,TemperatureF,Dew PointF,Humidity,Sea Level PressureIn,VisibilityMPH,Wind Direction,Wind SpeedMPH,Gust SpeedMPH,PrecipitationIn,Events,Conditions,WindDirDegrees,DateUTC
12:15 AM,75.2,66.9,75,29.76,10.0,ESE,9.2,16.1,N/A,,Scattered Clouds,110,2013-05-01 05:15:00
12:35 AM,74.8,67.1,77,29.77,10.0,East,8.1,16.1,N/A,,Scattered Clouds,100,2013-05-01 05:35:00
12:55 AM,74.5,67.1,78,29.77,10.0,ESE,9.2,-,N/A,,Mostly Cloudy,120,2013-05-01 05:55:00
1:15 AM,74.5,67.1,78,29.77,10.0,SE,6.9,-,N/A,,Overcast,140,2013-05-01 06:15:00
1:35 AM,74.3,67.1,78,29.77,10.0,SE,8.1,-,N/A,,Overcast,130,2013-05-01 06:35:00
1:55 AM,74.3,67.1,78,29.74,10.0,SE,11.5,16.1,N/A,,Overcast,130,2013-05-01 06:55:00
2:15 AM,73.9,66.6,78,29.74,10.0,SE,9.2,18.4,N/A,,Overcast,130,2013-05-01 07:15:00
2:35 AM,74.3,66.7,77,29.74,7.0,SE,5.8,-,N/A,,Overcast,140,2013-05-01 07:35:00
2:55 AM,74.3,66.2,76,29.74,10.0,SE,9.2,18.4,N/A,,Overcast,140,2013-05-01 07:55:00
3:15 AM,74.3,66.2,76,29.74,10.0,SE,8.1,-,N/A,,Overcast,140,2013-05-01 08:15:00
3:35 AM,74.3,66.2,76,29.74,10.0,ESE,8.1,-,N/A,,Overcast,120,2013-05-01 08:35:00
3:55 AM,74.3,65.7,74,29.73,10.0,ESE,11.5,17.3,N/A,,Overcast,120,2013-05-01 08:55:00
4:15 AM,74.5,65.3,73,29.73,7.0,SE,11.5,18.4,N/A,,Overcast,130,2013-05-01 09:15:00
4:35 AM,74.3,65.7,74,29.73,7.0,SE,5.8,-,N/A,,Overcast,140,2013-05-01 09:35:00
4:55 AM,74.3,65.3,73,29.73,7.0,SE,12.7,19.6,N/A,,Overcast,130,2013-05-01 09:55:00
5:15 AM,74.3,65.1,73,29.74,7.0,SE,10.4,16.1,N/A,,Overcast,130,2013-05-01 10:15:00
5:35 AM,73.8,64.6,73,29.75,7.0,SE,11.5,17.3,N/A,,Overcast,140,2013-05-01 10:35:00
5:55 AM,74.1,64.4,72,29.75,10.0,SE,9.2,-,N/A,,Overcast,140,2013-05-01 10:55:00
6:15 AM,74.3,64.6,72,29.75,10.0,SE,6.9,-,N/A,,Overcast,140,2013-05-01 11:15:00
6:35 AM,74.3,64.8,72,29.75,7.0,SE,6.9,-,N/A,,Overcast,130,2013-05-01 11:35:00
6:55 AM,74.3,65.3,73,29.76,7.0,SE,5.8,-,N/A,,Overcast,130,2013-05-01 11:55:00
7:15 AM,74.3,65.5,74,29.76,7.0,SE,4.6,-,N/A,,Overcast,130,2013-05-01 12:15:00
7:35 AM,74.3,65.3,73,29.77,7.0,SE,6.9,-,N/A,,Overcast,140,2013-05-01 12:35:00
7:55 AM,74.3,65.8,75,29.78,7.0,SE,4.6,-,N/A,,Overcast,140,2013-05-01 12:55:00
8:15 AM,74.3,66.2,76,29.79,5.0,SE,4.6,-,N/A,,Haze,130,2013-05-01 13:15:00
8:35 AM,75.2,66.2,73,29.81,7.0,East,9.2,-,N/A,,Overcast,90,2013-05-01 13:35:00
8:55 AM,76.5,65.7,69,29.80,7.0,ESE,9.2,-,N/A,,Mostly Cloudy,120,2013-05-01 13:55:00
9:15 AM,77.9,65.7,66,29.80,7.0,ESE,9.2,-,N/A,,Mostly Cloudy,120,2013-05-01 14:15:00
9:35 AM,78.8,65.7,64,29.80,7.0,SE,9.2,16.1,N/A,,Mostly Cloudy,130,2013-05-01 14:35:00
9:55 AM,79.9,65.8,62,29.80,7.0,SSE,8.1,-,N/A,,Mostly Cloudy,150,2013-05-01 14:55:00
10:15 AM,81.0,65.3,59,29.80,7.0,SE,11.5,16.1,N/A,,Mostly Cloudy,140,2013-05-01 15:15:00
10:35 AM,82.0,65.3,57,29.80,7.0,SE,6.9,-,N/A,,Mostly Cloudy,130,2013-05-01 15:35:00
10:55 AM,83.5,65.5,54,29.79,7.0,SSE,10.4,-,N/A,,Mostly Cloudy,150,2013-05-01 15:55:00
11:15 AM,85.1,65.1,51,29.80,7.0,SE,10.4,-,N/A,,Scattered Clouds,140,2013-05-01 16:15:00
11:35 AM,85.3,64.4,49,29.80,10.0,South,10.4,16.1,N/A,,Scattered Clouds,170,2013-05-01 16:35:00
11:55 AM,86.5,64.6,48,29.80,7.0,South,8.1,-,N/A,,Scattered Clouds,180,2013-05-01 16:55:00
12:15 PM,87.8,65.1,47,29.80,7.0,South,6.9,18.4,N/A,,Scattered Clouds,190,2013-05-01 17:15:00
12:35 PM,87.8,65.8,48,29.80,7.0,South,9.2,-,N/A,,Scattered Clouds,180,2013-05-01 17:35:00
12:55 PM,88.3,65.5,47,29.79,10.0,SSE,4.6,-,N/A,,Scattered Clouds,160,2013-05-01 17:55:00
1:35 PM,90.1,63.7,41,29.78,10.0,SE,5.8,-,N/A,,Clear,140,2013-05-01 18:35:00
1:55 PM,91.0,63.1,39,29.77,10.0,SE,6.9,-,N/A,,Clear,140,2013-05-01 18:55:00
2:15 PM,91.9,62.2,37,29.77,10.0,SSE,10.4,-,N/A,,Clear,160,2013-05-01 19:15:00
2:35 PM,93.0,61.9,35,29.76,10.0,South,11.5,17.3,N/A,,Clear,170,2013-05-01 19:35:00
2:55 PM,93.7,61.9,35,29.76,10.0,ESE,8.1,16.1,N/A,,Clear,110,2013-05-01 19:55:00
3:15 PM,94.1,60.4,32,29.74,10.0,SE,5.8,16.1,N/A,,Clear,140,2013-05-01 20:15:00
3:35 PM,95.4,61.0,32,29.74,10.0,SE,9.2,-,N/A,,Clear,140,2013-05-01 20:35:00
3:55 PM,95.9,59.9,30,29.74,10.0,SE,6.9,-,N/A,,Clear,130,2013-05-01 20:55:00
4:15 PM,96.1,60.3,30,29.73,10.0,East,8.1,-,N/A,,Clear,100,2013-05-01 21:15:00
4:35 PM,96.8,56.7,26,29.73,10.0,South,9.2,16.1,N/A,,Clear,170,2013-05-01 21:35:00
4:55 PM,96.8,59.2,29,29.72,10.0,East,10.4,16.1,N/A,,Scattered Clouds,100,2013-05-01 21:55:00
5:15 PM,96.1,59.2,29,29.72,10.0,ESE,5.8,-,N/A,,Scattered Clouds,120,2013-05-01 22:15:00
5:35 PM,96.6,57.9,27,29.73,10.0,East,8.1,16.1,N/A,,Clear,90,2013-05-01 22:35:00
5:55 PM,95.9,58.3,28,29.72,10.0,SE,9.2,-,N/A,,Scattered Clouds,130,2013-05-01 22:55:00
6:15 PM,95.4,57.6,28,29.73,10.0,SE,8.1,16.1,N/A,,Clear,130,2013-05-01 23:15:00
6:35 PM,95.0,57.9,29,29.73,10.0,ESE,12.7,17.3,N/A,,Clear,110,2013-05-01 23:35:00
6:55 PM,94.3,57.7,29,29.73,10.0,SE,9.2,16.1,N/A,,Clear,130,2013-05-01 23:55:00
7:15 PM,93.4,58.5,31,29.74,10.0,ESE,11.5,-,N/A,,Clear,120,2013-05-02 00:15:00
7:35 PM,92.3,59.2,33,29.76,10.0,SE,9.2,-,N/A,,Clear,130,2013-05-02 00:35:00
7:55 PM,91.2,60.1,35,29.77,10.0,SE,6.9,-,N/A,,Clear,130,2013-05-02 00:55:00
8:15 PM,90.0,60.6,37,29.77,10.0,SE,5.8,-,N/A,,Clear,130,2013-05-02 01:15:00
8:35 PM,89.1,61.9,40,29.77,10.0,SE,8.1,-,N/A,,Clear,130,2013-05-02 01:35:00
8:55 PM,88.0,64.0,45,29.77,10.0,SE,8.1,-,N/A,,Clear,130,2013-05-02 01:55:00
9:15 PM,86.9,64.8,48,29.78,10.0,SE,8.1,-,N/A,,Clear,140,2013-05-02 02:15:00
9:35 PM,86.2,65.3,50,29.79,10.0,SE,8.1,-,N/A,,Clear,140,2013-05-02 02:35:00
9:55 PM,85.5,65.5,51,29.79,10.0,SE,9.2,17.3,N/A,,Clear,140,2013-05-02 02:55:00
10:15 PM,84.4,66.2,54,29.80,10.0,SE,6.9,-,N/A,,Clear,130,2013-05-02 03:15:00
10:35 PM,83.3,67.5,59,29.81,10.0,SE,12.7,16.1,N/A,,Clear,140,2013-05-02 03:35:00
11:15 PM,81.1,67.8,64,29.83,10.0,ESE,8.1,-,N/A,,Mostly Cloudy,120,2013-05-02 04:15:00
11:35 PM,80.6,68.2,66,29.84,10.0,SE,9.2,-,N/A,,Mostly Cloudy,140,2013-05-02 04:35:00
11:55 PM,80.2,68.2,67,29.85,10.0,SE,6.9,17.3,N/A,,Mostly Cloudy,130,2013-05-02 04:55:00